sat.trackr.live / text

‹ back to catalog

STARLINK-11531 [DTC]

NORAD 62841 · 2025-019N

PAYLOAD ACTIVE UNKNOWN

§ Identity

Operator
Country
US
Launch date
2025-01-27
Launch site
AFETR
Launch vehicle
Mass (kg)
RCS (m²)

Purposes: comms

External: N2YO · Heavens-Above · Gunter

§ Orbital elements

Epoch: 2026-09-20T22:04:13.510848Z

Period
91.67 min
Inclination
42.9993°
Eccentricity
0.0001594
Mean motion
15.70877518 rev/d
Perigee alt
355.3 km
Apogee alt
357.5 km
Semi-major
6,734.5 km
B*
1.1966e-3
RAAN
209.3496°
Arg perigee
223.7192°
Mean anomaly
136.3550°
Rev number
9,458

§ Raw data

STARLINK-11531 [DTC]1 62841U 25019N   26263.91960082  .00156255  00000+0  11966-2 0  99902 62841  42.9993 209.3496 0001594 223.7192 136.3550 15.70877518 94585

JSON: /api/v1/satellites/62841 · /tle

For live sub-satellite position, see the globe view (requires WebGL).

§ Visibility from observer

Set your observer location to see the next 7 days of passes ≥ 10°. The values pass through the URL so the page stays shareable.

No JS? Fill the form by hand. The geolocation button needs JavaScript.